Dewpoint
44 37 28 23 20 18 17 16 17 17 16 18 22 20 20 18 20 22 22 22 21 16 15 14 13 12 12 14 17 18 19 19 16 14 14 15 16 18 23 28 31 34 38 45 51 52 55 56 56 58 58 58 59 60 60 60 60 60 60 60 60 61 62 62 62 62 63 62 61 61 61 61 61 62 63 63 63 63 64 63 63 62 61 61 61 61
38 34 29 24 19 17 15 14 14 14 14 16 19 18 17 23 17 21 21 22 22 15 15 16 14 15 13 12 14 19 19 18 17 15 15 16 17 18 20 22 24 26 37 39 44 51 53 56 56 57 58 57 59 59 60 60 60 60 61 61 61 61 62 62 61 62 62 62 62 62 61 60 60 61 62 62 62 62 63 63 63 62 62 62 61 60
34 29 30 22 19 17 14 13 13 12 14 19 18 18 18 22 24 21 22 22 22 18 13 14 13 14 14 13 13 18 18 18 18 16 15 17 19 20 21 22 24 31 36 37 39 48 52 55 56 56 57 58 59 60 59 60 60 60 60 61 61 61 61 61 61 61 61 60 61 61 59 61 58 59 61 62 61 62 63 63 63 63 63 63 62 62
28 29 24 21 19 16 15 13 12 14 20 18 19 19 16 23 18 19 16 21 20 12 13 21 12 13 17 17 16 17 18 18 19 18 18 19 18 19 20 22 25 32 37 35 38 44 49 53 55 54 55 57 57 58 59 59 60 61 60 61 61 61 61 61 61 60 60 60 60 60 60 60 60 59 59 60 60 61 62 62 62 63 63 63 63 63
31 27 22 19 18 16 14 13 12 11 11 25 24 21 20 22 20 15 15 20 20 19 23 12 17 12 13 14 14 15 18 18 18 20 19 22 25 23 27 27 28 32 36 34 36 39 42 44 47 50 53 53 55 56 57 58 60 60 60 60 61 61 61 61 60 60 60 59 59 59 57 58 58 57 56 57 58 59 60 62 61 62 62 63 62 62
27 25 23 19 19 16 16 14 17 20 12 19 29 21 18 19 19 20 20 16 16 16 21 13 8 14 17 12 13 13 12 13 16 18 19 21 25 29 27 28 32 37 38 34 35 37 39 41 41 40 40 43 49 52 53 53 56 57 59 59 60 61 61 61 60 60 60 60 60 59 59 58 57 58 55 57 57 56 57 60 61 62 62 62 62 62
26 24 24 20 19 22 19 16 23 19 16 19 13 28 21 18 22 21 20 19 12 11 17 13 8 15 16 15 9 8 10 11 20 22 20 23 26 28 29 31 31 34 34 36 36 35 36 37 38 39 39 39 41 42 43 47 53 54 57 58 59 59 60 61 60 60 59 60 60 59 59 58 58 58 55 54 54 57 56 58 60 62 61 62 62 62
24 22 22 29 20 22 21 16 21 16 19 17 30 31 22 23 22 21 18 20 20 24 22 20 12 5 6 4 20 13 10 11 15 19 22 20 22 25 27 30 31 33 33 36 37 36 35 37 38 37 38 40 40 41 42 45 48 53 55 56 57 58 58 59 60 60 60 60 59 58 58 57 56 56 56 54 56 56 56 58 59 60 60 60 61 61
26 28 27 26 26 21 19 20 29 18 16 19 30 29 23 20 23 24 20 24 24 18 14 17 23 4 11 13 16 12 11 11 13 15 17 17 21 25 29 35 38 39 41 39 38 38 36 36 37 39 41 42 42 42 42 43 44 47 51 54 55 56 57 57 59 59 58 58 58 57 57 55 54 56 55 53 54 56 57 57 56 56 56 57 56 57
32 31 31 29 26 20 28 29 33 24 18 25 34 35 31 30 30 24 23 22 19 13 15 17 18 3 12 21 16 12 9 10 10 13 14 16 23 28 33 39 40 40 40 41 41 40 42 43 43 43 43 43 42 42 42 42 44 47 49 53 54 54 55 56 56 57 56 56 56 55 55 55 53 53 52 53 55 53 53 53 52 53 53 53 54 55
31 31 30 34 26 30 28 29 35 32 26 33 30 26 27 27 25 24 25 24 19 8 17 23 23 9 6 20 10 11 13 7 8 10 18 24 30 33 37 38 39 39 39 40 41 42 42 42 44 45 45 45 45 44 44 44 44 46 49 50 52 52 53 54 55 56 54 53 54 54 53 53 53 52 53 53 52 51 51 52 51 52 52 52 52 53
31 33 34 34 31 32 30 30 33 35 33 29 28 23 21 21 23 25 23 23 10 12 22 20 22 16 6 11 18 15 10 10 6 7 18 27 31 35 36 37 39 40 40 40 41 41 41 42 43 44 45 45 45 45 46 45 46 47 47 50 51 51 51 51 52 53 53 53 52 52 52 53 52 53 53 52 51 51 52 51 51 51 51 52 53 52
27 33 35 35 36 30 31 26 26 33 33 27 22 16 17 15 19 10 14 11 9 8 14 15 20 17 14 10 13 7 4 8 12 10 21 27 31 35 36 36 39 40 40 40 40 41 41 43 44 44 45 46 47 47 47 48 47 47 49 50 52 50 49 50 50 52 52 53 52 53 52 52 52 52 52 51 52 51 53 52 51 50 48 49 51 50
29 34 35 34 33 30 35 18 23 24 26 21 15 17 17 13 6 3 9 11 10 15 18 13 19 12 16 11 15 14 12 10 22 21 28 30 32 34 36 38 39 39 40 40 40 40 41 42 43 44 46 47 47 47 49 48 49 50 50 50 52 51 50 51 52 52 53 52 52 52 53 52 53 52 52 52 52 52 52 50 49 48 48 48 47 47
24 22 25 30 22 32 30 26 23 24 26 22 24 17 21 18 9 1 8 5 10 15 13 18 10 14 7 8 14 14 16 25 28 30 31 33 34 35 36 38 39 39 40 40 40 42 42 43 43 44 44 45 46 48 48 47 49 50 50 51 52 53 52 52 53 53 53 53 53 53 53 54 54 53 53 52 52 50 49 47 47 46 46 48 47 47
24 25 32 37 32 33 30 34 34 31 27 27 29 26 19 16 21 13 17 15 11 8 7 9 12 16 8 16 19 19 21 24 29 32 34 35 37 38 38 40 40 40 41 41 41 41 41 41 42 42 43 43 43 44 44 46 48 50 51 52 53 54 53 53 53 54 54 54 54 54 54 53 51 50 49 48 48 48 47 47 47 46 46 46 46 47
21 18 33 37 32 28 31 31 29 30 19 23 23 18 25 27 19 13 11 18 13 8 8 15 11 15 15 6 14 16 17 18 24 29 32 34 36 37 38 38 39 40 40 39 40 40 40 40 40 40 40 41 42 43 43 44 46 48 50 52 52 52 52 52 52 52 52 51 51 49 49 49 48 47 47 47 46 46 46 46 46 46 45 46 46 46
18 28 33 33 29 30 31 30 33 30 30 24 18 22 28 27 24 17 7 8 8 9 13 11 8 8 3 11 16 14 16 15 18 23 29 33 34 35 37 38 39 39 39 39 39 39 39 39 40 40 40 40 41 41 41 42 42 43 44 45 45 45 45 44 46 46 47 46 46 45 45 45 45 45 45 45 45 45 45 44 44 44 44 43 43 44
29 24 27 31 33 34 35 33 28 31 32 25 23 31 17 13 9 17 13 -0 -2 -0 3 9 12 10 8 10 10 10 14 14 14 18 27 31 33 34 36 37 38 38 39 39 39 39 39 39 39 40 40 40 40 40 41 41 42 42 42 42 42 42 43 43 44 44 44 44 45 44 44 44 44 44 44 44 44 44 43 43 42 42 41 43 43 43
27 23 27 31 31 31 31 29 24 24 28 33 28 22 27 20 23 10 13 17 13 6 -3 10 7 9 17 11 13 10 12 15 13 16 24 30 32 35 36 38 38 38 39 39 39 39 39 39 39 40 40 40 40 40 40 41 41 41 41 41 41 42 42 42 43 43 43 42 43 42 42 42 42 42 43 42 42 42 41 41 41 41 41 41 41 41
20 28 22 27 32 29 22 25 24 24 23 21 20 18 18 23 23 21 19 13 10 4 3 2 1 16 16 18 14 12 11 13 14 16 23 29 31 35 37 38 38 38 39 39 39 39 39 39 39 39 39 39 39 39 40 40 40 40 41 40 41 41 41 41 41 41 41 41 41 40 40 40 40 40 40 40 40 40 39 39 39 39 38 38 38 37
25 23 24 26 26 23 27 32 32 31 27 23 20 19 18 17 13 9 15 16 12 7 3 0 5 17 21 15 13 13 13 14 16 17 22 28 31 35 37 37 37 38 38 38 38 38 38 38 39 38 38 37 39 39 39 39 39 39 39 40 40 40 40 40 40 40 40 40 39 39 39 38 38 38 38 38 38 37 37 37 37 36 36 36 34 35
31 30 27 25 27 25 31 33 33 32 32 30 23 23 25 22 22 15 8 17 10 10 18 14 3 14 25 18 20 19 21 17 15 18 21 28 32 35 37 37 37 38 39 38 38 38 38 38 38 38 38 38 38 38 38 38 38 38 38 38 38 39 39 39 39 39 39 38 38 38 37 37 37 37 36 36 36 36 35 35 34 33 35 35 34 34
35 28 27 26 27 30 31 32 34 33 32 27 26 29 24 18 20 17 22 23 14 9 4 5 -0 13 24 26 24 24 24 23 19 18 23 28 33 35 36 36 38 38 38 38 38 38 38 38 37 38 38 38 38 37 38 38 38 38 38 38 38 38 39 39 38 38 37 37 36 36 36 36 35 35 35 35 35 34 33 33 33 32 33 32 32 34
22 23 26 24 23 24 26 26 26 29 30 26 25 28 30 29 25 26 23 20 13 17 15 11 6 10 23 23 26 21 19 18 19 20 26 29 34 35 35 37 38 38 38 38 38 38 38 37 37 38 38 38 37 37 37 37 37 37 37 37 37 37 37 37 36 36 36 35 35 35 35 34 34 34 34 34 33 33 32 32 32 32 32 32 33 32
29 28 26 22 19 18 17 19 21 24 25 27 28 26 28 27 23 19 13 14 10 18 15 7 9 14 17 18 18 19 18 14 17 23 27 31 34 35 35 38 38 38 38 38 38 38 38 38 38 37 36 37 37 36 36 36 36 36 36 36 34 36 36 35 35 35 34 34 34 34 33 33 33 33 32 32 32 32 32 32 31 31 32 31 32 32
25 28 25 22 19 19 19 22 25 28 25 22 25 26 25 28 24 23 26 19 15 20 15 16 14 13 14 14 16 15 21 15 17 19 27 31 34 35 36 38 38 38 37 37 37 37 38 37 38 38 37 37 36 35 35 35 35 35 35 35 35 35 35 35 34 34 34 33 33 33 32 32 32 32 32 32 31 31 31 31 30 31 31 30 30 31
29 25 25 25 23 20 22 23 28 26 23 23 24 25 26 26 27 24 20 17 20 21 15 22 21 15 16 20 20 17 21 22 20 18 21 32 33 34 36 37 38 37 37 37 37 38 38 38 37 37 36 35 35 35 35 34 34 34 35 34 34 34 34 34 34 33 33 33 33 33 32 32 31 31 31 31 30 30 30 30 30 30 29 29 30 30
25 22 26 25 24 23 26 24 27 25 24 24 24 26 26 27 27 24 23 22 24 19 14 18 22 20 19 18 18 17 20 17 15 15 20 31 33 35 36 36 36 36 37 37 37 38 38 37 36 36 35 35 35 34 34 34 34 34 33 34 34 34 33 33 33 33 32 32 32 32 31 31 30 30 30 30 30 30 30 30 29 29 29 28 29 29
20 20 26 24 23 26 29 26 28 25 24 26 26 26 26 27 26 25 23 24 24 21 21 18 21 22 21 21 20 19 21 20 17 20 31 33 33 35 36 36 36 36 36 36 37 38 37 37 36 35 35 34 34 34 34 33 33 33 33 33 33 33 32 33 32 32 32 31 31 31 30 30 29 30 29 30 30 29 29 29 29 28 28 28 28 28
21 21 28 24 20 23 28 29 27 25 25 23 26 27 27 28 27 26 25 25 26 24 25 26 24 23 25 25 23 24 26 23 20 20 26 32 34 35 35 35 35 36 36 36 37 37 37 36 35 35 34 34 34 34 33 33 33 33 33 32 32 32 31 32 31 31 31 31 30 30 30 30 29 29 29 29 29 28 28 28 28 27 26 27 27 27
24 22 26 23 20 18 27 27 26 27 25 24 27 27 27 27 26 26 25 25 23 23 23 23 23 21 21 28 27 29 25 20 18 18 20 31 34 35 34 35 35 35 36 36 37 37 36 36 35 34 34 34 33 33 33 33 33 32 32 32 32 32 31 31 31 31 30 30 30 29 29 29 28 28 28 27 27 27 26 26 25 25 25 25 26 26
27 26 23 23 19 17 25 25 23 21 20 20 24 27 27 27 26 27 27 27 25 24 22 22 20 21 22 27 23 26 23 20 18 19 19 28 35 35 34 34 35 35 36 36 37 37 36 35 35 34 34 33 33 33 33 32 32 32 32 32 32 31 31 30 30 30 29 29 29 28 28 27 27 27 27 26 25 25 25 23 24 23 24 25 26 25
27 26 26 27 17 19 22 23 23 20 16 17 24 30 29 27 27 26 26 26 28 27 23 22 21 23 26 27 24 25 25 23 21 21 20 23 33 35 34 34 35 35 36 36 37 37 36 36 34 34 33 33 33 33 33 32 31 32 32 32 31 30 30 29 29 29 28 28 28 27 27 26 26 26 25 25 24 24 24 23 23 23 23 24 24 24
28 27 26 27 23 22 22 22 20 16 16 24 29 31 30 27 27 27 27 26 26 27 26 25 25 25 26 26 26 26 26 25 24 23 23 23 31 34 34 34 34 34 35 36 37 37 36 35 34 33 33 33 33 32 31 31 31 31 31 31 30 30 29 29 28 27 27 27 27 26 26 25 25 25 25 24 23 23 22 23 21 22 23 24 25 25
27 25 28 26 29 27 23 20 16 16 22 28 28 28 30 30 29 28 28 29 29 28 28 27 25 25 26 26 27 27 27 26 25 25 26 25 29 33 34 34 34 34 34 36 37 37 36 34 34 33 33 32 32 31 31 31 31 31 30 30 29 28 28 28 27 27 26 26 26 25 25 25 25 25 24 23 22 22 22 22 22 22 23 24 24 23
26 27 27 26 29 23 24 23 22 26 25 26 26 25 24 24 25 26 24 23 24 27 28 27 26 26 27 27 28 29 29 26 24 23 25 27 29 31 33 33 34 34 34 36 37 37 36 34 33 33 32 32 31 31 31 31 30 30 29 28 28 27 27 27 26 26 26 25 25 25 25 24 24 24 23 22 21 21 21 21 22 22 23 24 24 23
27 27 26 25 25 26 24 22 22 22 20 23 26 28 27 28 27 29 23 22 27 26 28 27 26 25 28 28 27 28 26 25 24 24 25 28 30 31 32 32 32 33 33 35 34 34 33 32 32 32 32 31 31 31 31 30 29 29 28 27 26 26 26 25 25 25 25 25 24 24 24 24 23 22 21 20 20 20 20 20 19 19 22 23 23 21
31 30 30 26 27 26 24 23 22 20 21 23 26 27 29 28 30 29 25 23 24 26 27 27 26 26 27 27 27 27 25 24 25 24 26 27 31 32 31 32 32 33 35 35 34 33 32 32 32 31 31 31 30 30 30 29 28 27 27 26 25 25 24 24 24 24 23 23 23 23 23 22 22 21 20 19 19 19 19 19 19 22 22 21 18 19
28 25 28 26 23 26 25 23 22 21 23 25 27 28 27 29 30 27 20 20 25 26 27 27 26 26 27 27 28 26 25 25 24 24 27 30 32 32 32 33 33 33 33 33 32 32 32 31 31 30 30 30 30 30 29 28 27 27 25 24 24 23 23 23 23 22 22 22 22 22 22 22 20 20 19 18 18 18 19 21 21 20 19 18 16 17
22 23 24 25 25 25 27 20 18 22 25 27 29 29 28 31 27 23 18 23 25 26 25 26 26 27 27 27 28 26 26 27 28 30 30 31 32 31 30 30 31 32 32 32 31 31 31 30 30 30 29 29 29 28 28 27 26 25 24 23 22 22 22 22 22 21 21 21 21 21 21 20 19 18 18 18 19 20 20 19 19 17 14 14 15 13
21 21 21 22 23 24 24 22 22 22 26 30 28 30 30 27 20 20 23 26 27 27 28 27 26 27 28 28 28 27 27 30 29 29 30 30 30 30 30 30 30 29 29 30 30 30 29 28 27 26 26 26 27 27 27 26 25 23 22 21 21 21 21 21 21 20 21 20 20 19 18 17 17 18 19 19 20 17 16 15 14 13 13 11 11 12
25 23 22 24 21 21 18 19 18 19 21 30 30 27 27 25 26 27 29 30 31 30 29 29 27 28 29 28 29 29 30 29 29 29 29 29 30 30 29 30 30 29 29 28 27 27 26 24 23 23 23 23 25 26 26 24 22 21 20 20 20 21 20 19 18 19 20 19 18 18 17 18 18 18 19 17 16 14 11 11 10 10 12 12 12 12
27 23 19 23 26 21 22 21 21 26 28 31 27 26 27 28 29 30 29 28 30 31 30 30 31 31 30 29 30 29 29 30 28 29 28 28 28 28 28 28 28 28 27 26 26 24 23 21 20 20 20 20 22 24 24 23 21 20 19 19 21 19 17 16 17 18 18 18 18 18 18 18 17 15 14 13 13 11 11 10 9 9 10 11 12 12
27 25 27 24 25 23 22 24 26 28 28 30 30 30 27 31 30 30 29 29 30 29 30 31 31 31 29 31 31 30 29 28 29 29 29 29 29 29 29 28 27 27 26 24 23 22 20 19 19 18 18 18 19 20 21 20 20 18 19 20 20 17 15 16 16 17 17 17 17 17 15 13 12 12 11 9 10 10 10 9 8 9 9 10 11 11
27 27 28 29 27 25 26 27 26 29 29 29 31 30 30 31 30 29 31 32 32 30 31 32 32 31 30 32 31 29 30 30 29 29 28 28 28 27 27 26 26 25 24 23 21 19 18 17 17 18 17 16 16 18 18 18 18 18 19 18 16 15 15 16 16 17 16 16 15 13 13 13 12 10 9 7 7 8 8 8 8 9 8 8 7 6
27 29 26 26 28 26 24 27 28 29 29 29 30 29 27 29 29 29 30 31 30 30 30 31 32 32 32 31 31 31 30 30 30 29 28 28 27 26 26 26 25 24 23 22 20 18 16 16 16 16 16 16 15 16 17 16 16 17 16 14 14 14 14 14 16 16 16 15 15 13 12 11 11 9 7 5 5 5 7 7 5 5 7 5 4 5
27 29 27 27 28 24 24 27 29 28 28 28 29 29 30 29 28 29 30 31 32 30 29 30 30 29 29 30 30 31 31 30 30 29 28 27 26 25 25 24 23 22 21 20 18 17 16 15 15 14 14 15 16 16 15 14 13 13 13 13 13 13 14 15 15 14 13 13 13 12 10 10 12 9 4 4 4 5 6 5 5 4 6 6 5 5
28 31 29 30 29 28 27 27 26 28 29 28 28 27 29 30 29 28 29 30 29 29 29 28 29 30 30 30 30 31 30 30 30 29 28 26 24 23 23 23 23 22 20 19 17 16 16 14 14 13 13 14 15 14 13 12 12 11 11 12 11 11 11 12 12 11 10 10 10 9 9 5 4 4 4 3 2 4 4 5 6 5 5 5 4 4
29 28 28 28 26 28 28 28 29 27 27 29 27 28 28 29 29 30 29 29 29 28 28 28 29 28 28 28 30 31 30 30 28 28 27 26 23 22 22 22 22 21 20 19 17 16 15 14 13 12 12 13 14 13 11 9 9 9 9 8 8 8 9 10 10 7 6 8 6 4 5 4 2 2 3 2 2 2 3 9 13 11 7 5 15 14
30 29 29 29 28 27 28 29 29 29 27 27 27 27 28 29 29 29 29 29 28 28 27 28 28 29 28 28 29 30 30 30 28 28 27 25 23 22 21 22 21 20 19 17 16 15 14 13 12 11 12 13 14 12 10 8 7 7 6 7 7 7 8 9 9 6 6 6 4 6 3 3 3 3 2 3 2 1 2 -1 3 12 14 13 12 14